Hourly Data Report for October 19, 2013

All times are specified in Local Standard Time (LST). Add 1 hour to adjust for Daylight Saving Time where and when it is observed.

ST LEONARD CS
NEW BRUNSWICK

47°09'28.050" N
67°49'55.014" W
245.00 m
810I001
71019
WIY

Download Data

Hourly Data (October 2013)
Hourly Data Report for October 19, 2013
Temp Definition
°C
Dew Point Temp Definition
°C
Rel Hum Definition
%
Wind Dir Definition
10's deg

Wind Spd Definition
km/h
Visibility Definition
km
Stn Press Definition
kPa
Hmdx Definition


Wind Chill Definition


Weather Definition


TIME
00:00 7.9 7.0 94 18 4   97.48     LegendNANA
01:00 7.4 6.4 93 24 4   97.49     LegendNANA
02:00 7.0 5.9 93 23 9   97.52     LegendNANA
03:00 6.6 5.5 93 23 11   97.52     LegendNANA
04:00 5.3 4.7 96 19 2   97.56     LegendNANA
05:00 6.2 4.5 89 25 19   97.58     LegendNANA
06:00 5.1 3.9 92 24 11   97.63     LegendNANA
07:00 5.5 3.5 87 27 11   97.71     LegendNANA
08:00 6.7 3.5 80 25 15   97.77     LegendNANA
09:00 8.0 4.3 77 26 15   97.81     LegendNANA
10:00 9.5 3.7 67 27 17   97.85     LegendNANA
11:00 9.9 3.7 65 25 20   97.90     LegendNANA
12:00 11.5 3.1 56 26 26   97.88     LegendNANA
13:00 12.2 3.5 55 26 22   97.86     LegendNANA
14:00 13.2 3.3 51 25 22   97.90     LegendNANA
15:00 13.4 3.3 50 27 17   97.95     LegendNANA
16:00 13.8 3.4 49 26 11   97.92     LegendNANA
17:00 12.3 3.2 54 27 11   97.99     LegendNANA
18:00 10.3 3.3 62 23 2   98.01     LegendNANA
19:00 6.3 3.9 85   0   97.96     LegendNANA
20:00 7.0 4.0 81 12 4   97.98     LegendNANA
21:00 6.7 4.2 84   0   97.93     LegendNANA
22:00 6.0 4.2 88 10 2   97.93     LegendNANA
23:00 6.0 4.6 91 11 2   97.88     LegendNANA

Notes on Data Quality.

Legend

  • E = Estimated
  • M = Missing
  • NA = Not Available
  • ‡ = Partner data that is not subject to review by the National Climate Archives
Date modified: